SL-16 DEB, 29100

Orbit data source: Space-Track

SL-16 DEB, 29100 is space debris in LEO originally from a launch on Fri, 26 Mar 1993 UTC launched from the Tyuratam Missile And Space Complex (TTMTR). Debris objects in space refer to the collection of defunct objects orbiting the Earth. Examples of debris include non-operational satellites, rocket bodies, and fragments generated from explosions, collisions, or faulty payload assembly.

Loading next visibility...
SL-16 DEB details
Identifier
29100, 1993-016AP
Orbit
LEO
Last TLE update1 day ago
Origin
Flag of CISRVSN RF (CIS)
ManufacturerUnknown
MissionSpacecraft
Bus & MotorUnknown
MassUnknown
Launch date (UTC)
1993-03-26 (32 years ago)
Launch vehicleUnknown
Launch site
Tyuratam Missile And Space Complex (TTMTR)
Object type
Payload
Rocket body
Debris
Shape & HBRUnknown
Radar Cross SectionSmall (<0.1 m²)

Expand to show TLE details & history

TLE from 1 day ago
0 SL-16 DEB
1 29100U 93016AP  24360.37679711  .00003402  00000-0  18739-2 0  9996
2 29100  70.7284 133.9076 0072637 148.7154 211.8319 14.10952246155376
Epoch: 2024-12-25T09:02Z
Definitive object data (Epoch: 2024-12-25T09:02:35.27Z)
Latitude0.00004°
Longitude-96.11077°
Altitude903.249 km
Speed7.378 km/s
True Right ascension08h 55m 37s
True Declination0° 00' 00"
Sunlit
Object was in full shadow at TLE epoch
Visualization TLE readout
Latitude15.04753°
Longitude-93.15039°
Altitude892.073 km
Speed7.39 km/s
Apparent Right ascension06h 12m 29s
Apparent Declination-26° 22' 40"
Sunlit
Object is in full shadow
Visualization observer readout
Local Sidereal Time11:42:02
Azimuth244.85° WSW
Elevation-11.19°
Doppler factor1
Orbital elements
Apogee altitude906.603 km
Perigee altitude801.538 km
Semi-major axis7,232.207 km
Eccentricity0.0072637
Inclination70.7284°
RAAN133.9076°
Arg. of periapsis148.7154°
True anomaly211.39626°
Mean anomaly211.8319°
Eccentric anomaly211.61374°
Mean motion3.52888 °/min
BSTAR0.0018739
Orbital period102.02 mins
Loading maneuver chart data...
Loading historical data...
Loading historical data...
Loading historical data...
Loading historical data...
Loading historical data...
Loading historical data...
Loading historical data...

SL-16 DEB Visibility forecast

Observer location: undefined°, undefined

Span
Click to sort rows by Start time (UTC) header in descending order
Start Az.
Max El. time (UTC)
Max El. Az.
Max El.
End time (UTC)
End Az.
9 mins2024-12-26 19:38:32.905Z352.054° N2024-12-26 19:42:32.905Z66.707° ENE37.517°2024-12-26 19:47:32.905Z137.455° SSE
5 mins2024-12-26 21:24:32.905Z284.665° WNW2024-12-26 21:26:32.905Z256.337° W18.853°2024-12-26 21:29:32.905Z218.971° SW
4 mins2024-12-27 08:50:32.905Z115.11° SE2024-12-27 08:51:32.905Z103.347° ESE15.234°2024-12-27 08:54:32.905Z69.34° E
9 mins2024-12-27 10:31:32.905Z214.354° SW2024-12-27 10:35:32.905Z285.597° WNW43.089°2024-12-27 10:40:32.905Z17.552° NNE
|